When you browse on this site, cookies collect data to enhance your experience and personalize the content and advertising you see.
Visit our Privacy Policy to learn more. By continuing to use the site, you agree to this use of cookies and data.
  • In Österreich
  • Länderverzeichnis
  • Für 7 Tage
  • Wassertemperatur
  • Wetterkarte
  • News
  • Widgets
  • user-avatar
    Anmelden

    Stündliche Wetter Puerto Salgar

    Heute, 15 Dezember, Sonntag

    Zeit Temperatur Niederschläge Wind Luftdruck Luftfeuchtigkeit
    00:00 +22°C° 0.3 mm 0 m/S 746 mmHg 92%
    01:00 +22°C° 0 mm 0 m/S 746 mmHg 91%
    02:00 +22°C° 0.2 mm 0 m/S 745 mmHg 91%
    03:00 +22°C° 0.2 mm 0 m/S 745 mmHg 91%
    04:00 +22°C° 0.2 mm 0 m/S 745 mmHg 92%
    05:00 +22°C° 0 mm 0 m/S 745 mmHg 91%
    06:00 +22°C° 0 mm 0 m/S 746 mmHg 91%
    07:00 +23°C° 0 mm 0 m/S 746 mmHg 90%
    08:00 +24°C° 0.1 mm 0 m/S 747 mmHg 85%
    09:00 +26°C° 0.1 mm 0 m/S 747 mmHg 79%
    10:00 +28°C° 0.1 mm 0 m/S 747 mmHg 74%
    11:00 +31°C° 0.2 mm 1 m/S 746 mmHg 71%
    12:00 +32°C° 0.2 mm 1 m/S 745 mmHg 68%
    13:00 +32°C° 0.2 mm 1 m/S 744 mmHg 65%
    14:00 +32°C° 0.1 mm 1 m/S 743 mmHg 67%
    15:00 +32°C° 0.1 mm 1 m/S 743 mmHg 70%
    16:00 +31°C° 0.1 mm 1 m/S 742 mmHg 72%
    17:00 +30°C° 0.6 mm 1 m/S 743 mmHg 79%
    18:00 +28°C° 0.6 mm 1 m/S 743 mmHg 86%
    19:00 +24°C° 0.6 mm 0 m/S 744 mmHg 93%
    20:00 +24°C° 0.4 mm 0 m/S 745 mmHg 94%
    21:00 +24°C° 0.4 mm 0 m/S 745 mmHg 94%
    22:00 +24°C° 0.4 mm 0 m/S 746 mmHg 95%
    23:00 +23°C° 0.6 mm 0 m/S 746 mmHg 95%

    Morgen, 16 Dezember, Montag

    Zeit Temperatur Niederschläge Wind Luftdruck Luftfeuchtigkeit
    00:00 +23°C° 0.6 mm 0 m/S 745 mmHg 95%
    01:00 +23°C° 0.6 mm 0 m/S 745 mmHg 95%
    02:00 +23°C° 1.4 mm 0 m/S 745 mmHg 96%
    03:00 +22°C° 1.4 mm 0 m/S 745 mmHg 96%
    04:00 +22°C° 1.4 mm 0 m/S 745 mmHg 97%
    05:00 +22°C° 0.3 mm 0 m/S 745 mmHg 96%
    06:00 +23°C° 0.3 mm 0 m/S 745 mmHg 95%
    07:00 +23°C° 0.3 mm 0 m/S 745 mmHg 95%
    08:00 +25°C° 0.1 mm 0 m/S 745 mmHg 88%
    09:00 +27°C° 0.1 mm 0 m/S 746 mmHg 81%
    10:00 +29°C° 0.1 mm 0 m/S 746 mmHg 74%
    11:00 +32°C° 0.1 mm 1 m/S 744 mmHg 70%
    12:00 +33°C° 0.1 mm 1 m/S 743 mmHg 66%
    13:00 +33°C° 0.1 mm 1 m/S 742 mmHg 62%
    14:00 +33°C° 0.1 mm 1 m/S 742 mmHg 65%
    15:00 +33°C° 0.1 mm 1 m/S 741 mmHg 68%
    16:00 +32°C° 0.1 mm 1 m/S 741 mmHg 71%
    17:00 +30°C° 0.8 mm 1 m/S 741 mmHg 78%
    18:00 +29°C° 0.8 mm 1 m/S 742 mmHg 85%
    19:00 +25°C° 0.8 mm 0 m/S 742 mmHg 92%
    20:00 +25°C° 0.9 mm 0 m/S 743 mmHg 93%
    21:00 +25°C° 0.9 mm 0 m/S 744 mmHg 94%
    22:00 +24°C° 0.9 mm 0 m/S 745 mmHg 94%
    23:00 +24°C° 0.8 mm 0 m/S 744 mmHg 94%

    übermorgen, 17 Dezember, Dienstag

    Zeit Temperatur Niederschläge Wind Luftdruck Luftfeuchtigkeit
    00:00 +24°C° 0.8 mm 0 m/S 744 mmHg 95%
    01:00 +26°C° 0.8 mm 1 m/S 744 mmHg 95%
    02:00 +23°C° 1.6 mm 0 m/S 743 mmHg 96%
    03:00 +23°C° 1.6 mm 0 m/S 743 mmHg 96%
    04:00 +23°C° 1.6 mm 0 m/S 743 mmHg 96%
    05:00 +23°C° 1.6 mm 0 m/S 743 mmHg 96%
    06:00 +23°C° 1.6 mm 0 m/S 744 mmHg 96%
    07:00 +23°C° 1.6 mm 0 m/S 744 mmHg 95%
    08:00 +25°C° 0.4 mm 0 m/S 744 mmHg 90%
    09:00 +27°C° 0.4 mm 0 m/S 744 mmHg 85%
    10:00 +30°C° 0.4 mm 1 m/S 744 mmHg 80%
    11:00 +31°C° 0.4 mm 1 m/S 743 mmHg 77%
    12:00 +32°C° 0.4 mm 1 m/S 742 mmHg 74%
    13:00 +32°C° 0.4 mm 1 m/S 741 mmHg 71%
    14:00 +32°C° 0.2 mm 1 m/S 740 mmHg 72%
    15:00 +32°C° 0.2 mm 1 m/S 740 mmHg 73%
    16:00 +32°C° 0.2 mm 1 m/S 739 mmHg 74%
    17:00 +30°C° 0.6 mm 1 m/S 740 mmHg 80%
    18:00 +29°C° 0.6 mm 1 m/S 741 mmHg 87%
    19:00 +25°C° 0.6 mm 0 m/S 741 mmHg 93%
    20:00 +25°C° 1.4 mm 0 m/S 742 mmHg 94%
    21:00 +24°C° 1.4 mm 0 m/S 743 mmHg 94%
    22:00 +26°C° 1.4 mm 1 m/S 743 mmHg 95%
    23:00 +24°C° 3.3 mm 0 m/S 743 mmHg 96%

    18 Dezember, Mittwoch

    Zeit Temperatur Niederschläge Wind Luftdruck Luftfeuchtigkeit
    00:00 +24°C° 3.3 mm 0 m/S 743 mmHg 96%
    01:00 +23°C° 3.3 mm 0 m/S 743 mmHg 97%
    02:00 +23°C° 2.5 mm 0 m/S 743 mmHg 97%
    03:00 +23°C° 2.5 mm 0 m/S 743 mmHg 98%
    04:00 +25°C° 2.5 mm 1 m/S 742 mmHg 98%
    05:00 +23°C° 1.6 mm 0 m/S 743 mmHg 98%
    06:00 +23°C° 1.6 mm 0 m/S 744 mmHg 98%
    07:00 +23°C° 1.6 mm 0 m/S 744 mmHg 97%
    08:00 +24°C° 0.2 mm 0 m/S 744 mmHg 95%
    09:00 +25°C° 0.2 mm 0 m/S 744 mmHg 92%
    10:00 +26°C° 0.2 mm 0 m/S 745 mmHg 89%
    11:00 +27°C° 0.1 mm 0 m/S 744 mmHg 83%
    12:00 +28°C° 0.1 mm 0 m/S 743 mmHg 77%
    13:00 +29°C° 0.1 mm 0 m/S 742 mmHg 71%
    14:00 +31°C° 0 mm 1 m/S 742 mmHg 72%
    15:00 +31°C° 0 mm 1 m/S 741 mmHg 73%
    16:00 +31°C° 0 mm 1 m/S 741 mmHg 74%
    17:00 +30°C° 0.8 mm 1 m/S 741 mmHg 80%
    18:00 +26°C° 0.8 mm 0 m/S 742 mmHg 86%
    19:00 +25°C° 0.8 mm 0 m/S 743 mmHg 92%
    20:00 +24°C° 0.9 mm 0 m/S 743 mmHg 93%
    21:00 +24°C° 0.9 mm 0 m/S 744 mmHg 94%
    22:00 +24°C° 0.9 mm 0 m/S 744 mmHg 95%
    23:00 +23°C° 1.3 mm 0 m/S 744 mmHg 96%

    19 Dezember, Donnerstag

    Zeit Temperatur Niederschläge Wind Luftdruck Luftfeuchtigkeit
    00:00 +23°C° 1.3 mm 0 m/S 744 mmHg 96%
    01:00 +23°C° 1.3 mm 0 m/S 743 mmHg 97%
    02:00 +23°C° 0.6 mm 0 m/S 743 mmHg 97%
    03:00 +22°C° 0.6 mm 0 m/S 743 mmHg 96%
    04:00 +22°C° 0.6 mm 0 m/S 743 mmHg 96%
    05:00 +23°C° 0.8 mm 0 m/S 743 mmHg 96%
    06:00 +23°C° 0.8 mm 0 m/S 744 mmHg 96%
    07:00 +23°C° 0.8 mm 0 m/S 745 mmHg 96%
    08:00 +24°C° 0.5 mm 0 m/S 745 mmHg 94%
    09:00 +25°C° 0.5 mm 0 m/S 745 mmHg 91%
    10:00 +29°C° 0.5 mm 1 m/S 745 mmHg 88%
    11:00 +29°C° 0.8 mm 1 m/S 744 mmHg 85%
    12:00 +30°C° 0.8 mm 1 m/S 743 mmHg 82%
    13:00 +31°C° 0.8 mm 1 m/S 742 mmHg 79%
    14:00 +31°C° 0.5 mm 1 m/S 742 mmHg 80%
    15:00 +31°C° 0.5 mm 1 m/S 742 mmHg 81%
    16:00 +30°C° 0.5 mm 1 m/S 741 mmHg 82%
    17:00 +29°C° 1.1 mm 1 m/S 742 mmHg 87%
    18:00 +28°C° 1.1 mm 1 m/S 743 mmHg 91%
    19:00 +24°C° 1.1 mm 0 m/S 744 mmHg 95%
    20:00 +24°C° 1.1 mm 0 m/S 744 mmHg 95%
    21:00 +24°C° 1.1 mm 0 m/S 745 mmHg 96%
    22:00 +23°C° 1.1 mm 0 m/S 745 mmHg 96%
    23:00 +23°C° 1.1 mm 0 m/S 745 mmHg 96%

    20 Dezember, Freitag

    Zeit Temperatur Niederschläge Wind Luftdruck Luftfeuchtigkeit
    00:00 +23°C° 1.1 mm 0 m/S 745 mmHg 96%
    01:00 +23°C° 1.1 mm 0 m/S 744 mmHg 96%
    02:00 +23°C° 0.4 mm 0 m/S 744 mmHg 96%
    03:00 +22°C° 0.4 mm 0 m/S 744 mmHg 96%
    04:00 +22°C° 0.4 mm 0 m/S 744 mmHg 96%
    05:00 +23°C° 0.3 mm 0 m/S 744 mmHg 96%
    06:00 +23°C° 0.3 mm 0 m/S 745 mmHg 95%
    07:00 +23°C° 0.3 mm 0 m/S 745 mmHg 95%
    08:00 +25°C° 0.5 mm 0 m/S 745 mmHg 91%
    09:00 +26°C° 0.5 mm 0 m/S 745 mmHg 87%
    10:00 +28°C° 0.5 mm 0 m/S 745 mmHg 84%
    11:00 +29°C° 0.4 mm 0 m/S 744 mmHg 77%
    12:00 +32°C° 0.4 mm 1 m/S 743 mmHg 71%
    13:00 +33°C° 0.4 mm 1 m/S 742 mmHg 65%
    14:00 +33°C° 0.1 mm 1 m/S 742 mmHg 68%
    15:00 +32°C° 0.1 mm 1 m/S 742 mmHg 70%
    16:00 +32°C° 0.1 mm 1 m/S 741 mmHg 73%
    17:00 +30°C° 0.3 mm 1 m/S 742 mmHg 79%
    18:00 +26°C° 0.3 mm 0 m/S 743 mmHg 86%
    19:00 +25°C° 0.3 mm 0 m/S 743 mmHg 93%
    20:00 +24°C° 0.4 mm 0 m/S 744 mmHg 93%
    21:00 +24°C° 0.4 mm 0 m/S 745 mmHg 94%
    22:00 +24°C° 0.4 mm 0 m/S 745 mmHg 95%
    23:00 +23°C° 1.1 mm 0 m/S 745 mmHg 96%
    Mehr zeigen